Temperature
13 14 13 13 13 13 14 13 14 14 14 14 14 14 14 14 14 14 14 14 14 15 14 14 15 15 15 15 15 15 15 15 15 15 15 15 15 15 15 15 15 15 15
13 13 13 13 13 13 13 13 13 13 14 14 14 14 14 14 14 14 14 14 14 14 14 14 14 14 14 15 15 15 14 14 14 14 14 14 14 14 14 15 15 14 14
13 13 13 13 13 13 13 13 13 13 13 14 14 14 14 14 14 14 14 14 14 14 14 14 14 14 14 14 14 14 14 14 14 14 14 14 14 14 14 14 14 14 14
12 13 13 13 13 13 13 13 13 13 13 13 13 14 14 14 14 14 14 14 14 14 14 14 14 14 14 14 14 14 14 14 13 13 13 14 14 14 14 14 14 14 14
12 12 12 13 13 13 13 13 13 13 13 13 13 13 13 13 14 14 14 14 14 14 14 14 14 14 14 14 14 14 13 13 13 13 13 14 14 14 14 14 14 14 14
12 12 12 12 12 12 13 13 13 13 13 13 13 13 13 13 13 13 13 13 13 13 13 13 13 13 14 14 13 13 13 13 13 13 13 13 13 13 13 13 13 14 14
12 12 12 12 12 12 12 12 12 13 13 13 13 13 13 13 13 13 13 13 13 13 13 13 13 13 13 13 13 13 13 13 13 13 13 13 13 13 13 13 13 13 13
11 11 12 12 12 12 12 12 12 12 12 12 12 12 12 12 13 13 12 12 12 13 13 13 13 13 13 13 13 13 13 13 12 13 13 13 13 13 13 13 13 13 13
11 11 11 11 12 12 12 12 12 12 12 12 12 12 12 12 12 12 12 12 12 12 12 12 12 12 12 12 12 12 12 12 12 12 12 12 12 12 12 12 13 13 12
11 11 11 11 11 11 12 12 12 12 11 12 12 12 12 12 12 12 12 12 12 12 12 12 12 12 12 12 12 12 12 12 12 12 12 12 12 12 12 12 12 12 12
10 10 11 11 11 11 11 11 11 11 11 11 11 11 11 11 11 11 11 11 11 11 11 11 11 11 11 11 11 11 11 11 11 11 11 11 12 12 12 12 12 12 12
10 10 10 11 11 11 11 11 11 11 11 11 11 11 11 11 11 11 11 11 11 11 11 11 11 11 11 11 11 11 11 11 11 11 11 11 11 11 11 11 11 11 11
10 10 10 10 10 10 10 10 10 10 10 11 10 10 10 10 10 10 10 10 10 10 10 10 10 10 10 10 10 10 11 11 11 11 11 11 11 11 11 11 11 11 11
9 10 10 10 10 10 10 10 10 10 10 10 10 10 10 10 10 10 10 10 10 10 10 10 10 10 10 10 10 10 10 10 10 10 10 10 10 10 10 10 10 10 11
9 9 9 9 9 9 9 9 9 9 10 10 10 10 10 10 10 10 10 10 10 10 10 10 9 9 9 10 10 10 10 10 10 10 10 10 10 10 10 10 10 10 10
8 9 9 9 9 9 9 9 9 9 9 9 9 9 9 9 9 9 9 9 9 9 9 9 9 9 9 9 9 9 9 9 9 9 9 9 9 10 10 10 10 10 10
8 8 8 8 8 8 9 9 9 9 8 9 9 9 9 9 9 9 9 9 9 9 9 9 9 9 9 9 9 9 9 9 9 9 9 9 9 9 9 9 9 9 9
7 7 7 7 7 8 8 8 8 8 8 8 8 8 8 8 8 8 8 8 8 8 8 8 8 8 8 8 8 8 8 8 8 8 8 9 9 9 9 9 9 9 9
7 7 7 7 7 7 7 7 7 7 7 7 8 7 7 8 7 8 8 8 8 8 8 8 8 8 8 8 8 8 8 8 8 8 8 8 8 8 8 8 8 8 9
6 6 6 6 6 6 6 6 6 6 7 7 7 7 7 7 7 7 7 7 7 7 7 7 7 7 7 7 8 8 7 7 7 8 8 7 7 7 7 8 8 8 8
5 5 5 5 5 5 5 6 6 6 6 6 6 6 6 6 7 7 7 7 7 7 7 7 7 7 7 7 7 7 7 7 7 7 7 7 7 7 7 7 7 7 8
4 4 4 5 5 5 5 5 5 5 5 5 5 5 5 6 6 6 6 6 6 6 6 6 6 6 6 6 6 6 6 6 6 6 6 6 6 6 7 7 7 7 7
4 4 4 4 4 4 4 4 4 5 5 5 5 5 5 5 5 5 5 5 5 5 5 5 5 5 6 5 5 5 5 4 5 5 5 6 6 6 6 6 6 6 7
4 4 3 4 4 4 4 4 4 4 4 4 4 4 4 4 4 4 4 4 5 5 5 5 5 5 5 5 5 4 4 4 4 4 5 5 5 5 5 6 6 6 6
3 3 3 3 3 3 4 4 4 4 4 4 4 4 4 4 4 4 4 4 4 4 4 4 4 4 4 4 4 4 4 4 3 3 3 4 4 4 5 5 5 5 5
2 2 2 2 3 3 3 3 3 3 3 3 3 3 3 3 3 3 3 3 3 3 3 3 3 3 4 4 3 3 3 3 3 3 3 3 3 4 4 4 4 5 5
Wind_Speed
6 7 6 8 10 11 11 12 12 13 13 13 13 14 14 14 14 15 15 15 15 15 16 16 16 16 16 16 17 17 16 16 16 16 16 16 16 16 16 16 15 14 16
8 8 8 10 11 12 12 12 12 13 13 13 13 13 13 14 14 14 14 15 15 15 15 15 16 16 16 16 16 15 15 15 14 14 14 15 16 16 16 16 16 14 16
9 9 9 12 12 12 12 12 13 13 13 12 13 13 13 13 13 14 14 14 14 15 15 15 15 15 15 15 14 14 14 13 12 13 13 13 14 15 16 16 16 16 16
9 10 10 12 12 13 13 13 12 12 12 12 12 12 13 13 13 13 13 14 14 14 14 14 14 14 14 14 14 13 13 12 11 11 12 12 12 14 14 15 15 15 15
9 11 11 12 13 13 13 13 12 12 12 12 12 12 12 12 13 13 13 13 13 13 14 14 13 14 14 13 13 12 12 12 12 12 12 13 12 13 14 14 14 14 14
9 11 12 12 13 13 13 12 12 12 12 12 12 12 12 13 13 13 13 13 13 13 13 13 13 13 13 13 12 11 11 11 11 11 12 12 11 13 14 13 13 14 14
8 11 12 12 12 12 13 12 12 12 12 12 12 12 12 13 13 13 13 13 12 12 13 12 12 12 12 11 11 11 11 11 11 11 12 12 12 13 13 13 13 13 12
8 10 11 12 12 12 12 12 11 11 12 12 12 12 12 12 13 13 12 12 12 12 12 12 12 11 11 11 10 10 10 11 10 11 12 11 12 12 12 12 12 12 11
9 9 9 10 10 11 11 11 11 11 11 11 11 11 11 12 12 12 12 12 11 11 11 11 11 11 10 10 10 10 11 11 11 10 10 10 11 11 11 11 10 10 11
7 7 8 8 8 9 10 10 11 11 10 10 11 11 11 10 11 11 11 11 11 11 10 10 10 10 9 8 8 9 10 10 11 10 9 9 10 10 10 9 9 10 10
6 5 6 7 7 7 8 9 9 9 9 9 9 10 9 8 9 9 9 10 10 10 9 9 9 8 8 7 8 9 9 9 10 9 9 10 10 10 9 9 9 9 9
5 4 4 5 5 6 6 7 7 7 8 9 8 8 7 7 7 7 8 9 9 9 8 8 7 7 7 6 6 7 8 9 9 9 9 10 9 9 9 9 9 9 8
5 5 4 4 5 5 5 5 5 6 6 7 7 7 7 7 7 7 7 7 7 7 7 6 6 5 6 6 5 6 7 7 8 8 8 9 8 8 8 9 9 8 8
5 5 4 5 5 4 4 4 5 5 5 6 6 7 7 6 6 6 6 5 5 5 5 5 4 5 6 6 6 7 7 7 7 7 7 7 7 7 6 6 7 8 7
5 4 4 5 5 4 4 4 5 5 5 6 6 6 6 5 4 5 5 5 5 5 5 4 4 5 5 6 7 7 6 6 7 7 6 7 6 6 6 5 6 6 7
5 4 4 4 5 5 4 4 5 6 6 7 7 6 6 6 5 4 4 5 5 5 5 4 5 4 4 5 6 6 6 6 6 6 6 5 6 5 5 6 5 5 6
5 5 4 4 5 5 5 5 5 5 6 6 6 7 7 6 5 5 4 4 5 5 5 5 5 5 4 5 5 5 5 5 5 4 5 4 4 5 5 5 5 4 4
5 5 5 4 5 6 5 5 5 6 6 5 6 7 7 7 6 5 4 4 5 5 5 4 3 3 3 3 3 3 4 3 3 4 4 5 4 4 4 4 5 4 4
5 5 5 4 5 6 5 5 6 6 6 6 6 6 7 7 6 5 4 5 5 4 4 3 3 2 2 3 3 2 2 2 2 3 4 4 3 4 4 3 3 4 4
5 5 5 5 5 6 5 5 5 5 5 6 6 6 6 7 7 6 5 5 5 3 3 3 3 3 2 2 2 2 2 1 2 2 2 3 3 3 3 3 3 2 3
5 5 5 6 5 5 4 3 3 3 3 3 4 6 6 6 7 6 5 5 5 3 3 3 2 2 2 2 2 2 2 1 1 2 2 3 4 4 3 2 2 1 1
6 5 5 5 5 5 3 3 2 3 2 3 3 5 6 6 6 5 5 3 3 3 3 3 3 2 1 2 1 1 1 2 2 2 2 2 3 4 4 4 4 3 2
5 5 5 5 5 4 4 4 3 3 3 2 2 2 4 5 5 5 4 4 3 2 1 1 2 2 1 2 2 1 1 1 2 1 1 2 3 3 3 3 3 4 3
5 5 5 5 5 4 4 4 5 3 3 2 2 2 3 4 4 4 4 3 3 2 2 1 2 1 1 1 2 2 1 0 0 1 2 1 3 3 3 3 3 3 2
5 5 5 5 5 4 4 4 4 3 2 2 3 3 2 2 3 3 3 3 2 2 2 2 2 1 1 0 1 1 2 1 1 1 2 3 3 3 2 2 2 2 2
5 5 5 5 5 4 4 3 3 4 3 4 3 2 1 1 2 2 2 2 2 2 1 1 1 1 1 1 1 1 1 1 1 1 2 3 4 3 3 2 2 2 2
Wind_Direction
102 95 95 92 95 94 90 87 86 83 78 75 73 71 70 70 69 69 70 69 66 65 64 63 63 63 62 62 62 62 62 64 64 65 66 66 66 66 65 62 64 66 70
111 106 104 101 98 97 93 90 88 84 81 77 75 73 71 70 68 68 69 69 67 66 65 65 64 63 62 62 62 62 63 62 63 65 67 65 64 65 64 64 65 68 69
106 104 104 101 99 98 95 91 89 86 82 79 77 74 72 71 70 69 68 68 67 66 65 64 64 64 63 62 61 61 59 55 56 63 66 66 65 65 66 66 66 66 68
103 105 102 100 100 98 95 92 90 87 83 79 77 75 72 72 72 70 69 69 68 66 65 64 63 64 63 61 59 57 52 45 46 55 61 64 64 66 67 67 67 66 67
101 101 101 100 100 100 97 94 91 89 85 80 77 75 73 73 73 71 70 69 69 68 67 65 64 63 62 60 57 52 42 37 44 51 62 63 61 65 67 67 67 67 66
101 100 103 101 101 101 98 96 93 89 87 83 80 77 75 75 75 74 71 69 68 68 68 67 65 63 61 57 52 44 34 32 45 55 66 66 61 65 66 67 68 67 66
101 100 107 103 100 99 97 96 94 91 88 85 81 78 76 76 76 74 72 69 67 69 69 68 67 64 60 54 47 39 30 32 50 59 64 64 63 66 66 65 65 64 66
101 99 108 109 105 100 98 95 93 91 88 85 81 79 78 76 74 72 71 68 66 69 70 70 68 64 59 52 44 37 31 35 51 62 63 63 66 67 66 64 63 63 64
103 102 102 109 110 106 100 95 92 89 88 86 82 78 76 76 75 72 69 67 65 67 70 69 67 63 59 53 46 36 30 34 47 61 65 61 63 66 67 65 64 64 63
103 101 102 100 105 108 104 100 95 91 88 88 83 78 75 74 74 72 67 66 65 64 67 67 65 62 56 50 43 32 26 35 51 60 65 63 63 64 67 69 67 67 66
105 100 101 101 99 108 111 104 98 94 90 86 80 80 77 71 70 71 69 68 65 61 62 64 62 59 53 46 39 30 32 44 48 58 66 65 62 63 64 66 68 66 66
114 103 97 103 101 101 107 106 98 91 86 80 72 70 70 70 67 70 74 72 66 61 60 60 62 64 53 40 34 32 41 46 49 59 65 67 61 63 64 65 67 67 66
131 112 97 95 97 96 97 100 94 92 87 83 74 63 60 62 64 62 65 65 61 59 52 48 45 39 43 38 35 37 45 46 52 60 66 68 63 62 65 64 62 62 63
121 116 98 96 93 89 97 98 96 91 85 78 74 67 61 54 54 55 53 52 51 48 46 36 27 33 41 38 40 49 46 47 54 60 66 72 67 62 62 64 65 61 58
124 118 113 106 100 95 90 94 90 82 84 84 79 72 65 57 47 49 47 48 43 42 40 24 25 37 35 36 45 46 46 49 53 57 63 69 67 61 59 58 64 61 55
136 126 116 113 108 105 98 90 85 81 83 84 77 72 66 63 56 48 46 44 38 38 35 27 33 32 32 40 42 36 39 49 57 63 63 65 60 56 56 53 56 58 54
138 127 124 125 117 114 108 98 89 81 82 80 80 77 67 61 55 51 45 43 30 32 36 35 38 38 37 40 39 30 30 41 48 55 61 69 61 55 53 49 46 48 50
137 131 129 131 120 113 108 101 96 88 82 79 78 75 65 59 58 56 46 43 35 39 36 32 36 45 38 31 23 20 23 31 44 53 53 60 64 62 53 47 41 36 39
136 134 129 123 120 113 114 110 99 89 83 75 70 65 61 56 52 58 51 44 38 43 41 34 33 40 41 29 16 17 19 16 33 53 52 47 59 68 62 48 40 27 21
126 126 123 117 117 118 114 104 97 88 81 74 69 65 61 55 48 51 51 45 40 43 41 41 42 35 48 25 11 12 348 343 43 56 46 35 48 60 60 52 47 22 5
129 128 126 118 117 121 125 121 117 108 94 81 70 68 63 58 51 50 46 43 40 45 37 44 54 48 37 34 41 9 344 342 57 35 42 39 36 36 39 43 53 53 28
139 136 133 128 125 128 132 128 125 121 105 101 84 71 65 59 52 48 48 40 41 49 46 47 55 38 14 23 47 39 359 344 11 353 9 27 20 22 20 18 22 25 53
143 146 143 135 130 129 128 113 110 95 90 80 79 73 60 59 55 51 48 40 36 47 62 54 57 64 43 1 29 73 109 240 319 305 332 5 9 359 1 3 5 11 19
153 146 139 137 129 124 126 131 139 138 129 129 124 97 71 61 56 52 49 46 40 39 38 23 40 51 81 14 1 17 5 143 214 299 300 331 347 335 335 340 348 347 356
147 145 142 136 130 133 134 137 146 130 118 120 118 109 91 77 66 56 47 44 40 39 38 26 18 29 51 356 327 332 332 337 265 241 280 302 320 300 301 313 323 339 334
145 142 143 141 136 139 141 139 140 136 133 133 131 132 128 112 86 53 40 38 33 30 25 8 4 350 331 301 295 293 288 295 298 287 281 300 300 288 279 272 271 279 281
Height
1521 1523 1524 1526 1527 1528 1529 1530 1531 1532 1533 1534 1535 1535 1536 1536 1537 1537 1537 1538 1538 1538 1538 1539 1539 1539 1539 1540 1540 1540 1541 1541 1541 1541 1542 1542 1542 1543 1543 1543 1543 1543 1543
1520 1522 1524 1526 1527 1528 1530 1531 1532 1533 1534 1535 1535 1536 1537 1537 1538 1538 1538 1539 1539 1539 1539 1540 1540 1540 1541 1541 1541 1542 1542 1543 1543 1543 1544 1544 1544 1544 1544 1545 1545 1545 1545
1519 1521 1523 1525 1527 1528 1530 1531 1532 1533 1534 1535 1536 1537 1537 1538 1538 1539 1539 1540 1540 1540 1541 1541 1541 1542 1542 1542 1543 1543 1544 1544 1545 1545 1545 1545 1546 1546 1546 1546 1547 1547 1547
1519 1521 1523 1525 1527 1529 1530 1531 1532 1534 1535 1536 1537 1537 1538 1538 1539 1540 1540 1540 1541 1541 1542 1542 1542 1543 1543 1544 1544 1545 1545 1546 1546 1546 1547 1547 1547 1548 1548 1548 1548 1549 1549
1519 1521 1523 1525 1527 1529 1530 1531 1533 1534 1535 1536 1537 1538 1538 1539 1540 1540 1541 1541 1541 1542 1542 1543 1543 1544 1544 1545 1545 1546 1546 1547 1547 1547 1548 1548 1548 1549 1549 1549 1550 1550 1550
1519 1521 1523 1525 1527 1528 1530 1532 1533 1534 1535 1536 1537 1538 1539 1539 1540 1541 1541 1541 1542 1542 1543 1543 1544 1544 1545 1545 1546 1547 1547 1548 1548 1548 1549 1549 1549 1550 1550 1551 1551 1551 1552
1518 1520 1523 1525 1526 1528 1530 1532 1533 1534 1535 1536 1537 1538 1539 1539 1540 1541 1541 1542 1542 1543 1543 1544 1544 1545 1546 1546 1547 1547 1548 1549 1549 1549 1549 1550 1550 1551 1551 1552 1552 1552 1553
1518 1520 1522 1524 1526 1528 1530 1531 1533 1534 1535 1536 1537 1538 1539 1540 1540 1541 1541 1542 1543 1543 1544 1544 1545 1545 1546 1547 1548 1548 1549 1549 1549 1550 1550 1550 1551 1552 1552 1552 1553 1553 1553
1518 1520 1522 1524 1526 1528 1529 1531 1532 1534 1535 1536 1537 1538 1539 1540 1540 1541 1542 1542 1543 1543 1544 1545 1545 1546 1546 1547 1548 1549 1549 1549 1550 1550 1550 1551 1551 1552 1552 1553 1553 1553 1554
1517 1519 1521 1523 1525 1527 1529 1530 1532 1533 1535 1536 1537 1538 1539 1540 1540 1541 1542 1542 1543 1544 1544 1545 1545 1546 1547 1547 1548 1549 1549 1549 1550 1550 1551 1551 1552 1552 1552 1553 1553 1553 1554
1516 1518 1520 1522 1524 1526 1528 1530 1531 1533 1534 1535 1536 1537 1538 1539 1540 1541 1542 1542 1543 1543 1544 1545 1545 1546 1547 1547 1548 1548 1549 1549 1550 1550 1551 1551 1552 1552 1552 1553 1553 1553 1554
1514 1517 1519 1521 1523 1525 1527 1528 1530 1532 1533 1534 1536 1537 1538 1539 1540 1540 1541 1542 1543 1543 1544 1545 1545 1546 1546 1547 1547 1548 1548 1549 1549 1550 1550 1551 1552 1552 1552 1553 1553 1554 1554
1513 1515 1517 1519 1522 1524 1525 1527 1529 1531 1532 1534 1535 1536 1537 1538 1539 1540 1541 1541 1542 1543 1544 1544 1545 1545 1546 1547 1547 1547 1548 1548 1549 1549 1550 1551 1551 1552 1552 1553 1553 1553 1554
1511 1513 1516 1518 1520 1522 1524 1526 1527 1529 1531 1532 1534 1535 1536 1537 1538 1539 1539 1540 1541 1542 1543 1543 1544 1545 1546 1546 1546 1547 1547 1548 1548 1549 1549 1550 1551 1551 1552 1552 1553 1553 1553
1509 1512 1513 1516 1518 1520 1522 1524 1526 1528 1530 1531 1533 1534 1535 1536 1537 1538 1538 1540 1540 1541 1542 1543 1543 1544 1545 1545 1546 1546 1546 1547 1547 1548 1549 1549 1550 1551 1551 1552 1552 1552 1552
1507 1509 1511 1514 1516 1518 1520 1522 1524 1526 1528 1530 1531 1533 1534 1535 1536 1537 1538 1539 1539 1540 1541 1542 1542 1543 1543 1544 1544 1545 1545 1546 1546 1547 1548 1548 1549 1549 1550 1550 1551 1551 1551
1505 1507 1509 1512 1514 1516 1518 1520 1522 1525 1526 1528 1530 1531 1532 1534 1535 1536 1537 1538 1539 1540 1540 1541 1541 1542 1542 1542 1543 1544 1544 1544 1545 1546 1546 1547 1547 1548 1548 1549 1549 1550 1550
1503 1505 1507 1509 1511 1513 1516 1519 1521 1523 1524 1526 1528 1529 1531 1532 1533 1535 1536 1536 1537 1538 1539 1539 1540 1540 1540 1541 1541 1542 1542 1543 1543 1544 1545 1545 1546 1546 1547 1547 1548 1548 1549
1500 1502 1504 1506 1509 1511 1514 1516 1518 1521 1522 1524 1526 1528 1529 1531 1532 1533 1534 1535 1536 1536 1537 1538 1538 1539 1539 1539 1539 1540 1541 1541 1542 1542 1543 1544 1544 1544 1545 1545 1546 1546 1546
1498 1500 1502 1504 1506 1509 1511 1514 1516 1518 1520 1522 1524 1526 1527 1529 1530 1531 1532 1533 1534 1535 1535 1536 1537 1537 1537 1538 1538 1538 1539 1540 1540 1541 1541 1542 1542 1542 1543 1543 1543 1544 1544
1496 1497 1499 1502 1504 1506 1509 1511 1514 1516 1518 1520 1522 1524 1525 1527 1528 1529 1530 1531 1532 1533 1533 1534 1535 1535 1535 1536 1536 1536 1537 1538 1539 1539 1540 1540 1540 1541 1541 1541 1541 1541 1542
1493 1495 1497 1500 1502 1505 1508 1509 1512 1514 1516 1518 1520 1522 1523 1524 1526 1527 1528 1529 1530 1531 1531 1532 1533 1533 1534 1534 1535 1534 1535 1537 1536 1537 1538 1538 1538 1538 1538 1538 1539 1539 1539
1491 1493 1496 1498 1500 1503 1506 1507 1510 1512 1514 1516 1518 1519 1521 1522 1523 1525 1526 1527 1528 1528 1529 1530 1530 1531 1531 1533 1533 1534 1534 1533 1533 1534 1534 1535 1535 1536 1536 1536 1536 1536 1536
1489 1492 1494 1496 1498 1501 1503 1505 1508 1510 1511 1514 1516 1517 1518 1520 1521 1522 1523 1524 1525 1526 1526 1527 1528 1528 1529 1530 1531 1532 1533 1532 1533 1531 1531 1532 1532 1532 1533 1533 1533 1533 1533
1487 1490 1492 1494 1496 1499 1501 1503 1506 1508 1510 1512 1513 1514 1516 1517 1519 1520 1520 1521 1522 1523 1524 1524 1525 1526 1527 1527 1528 1529 1529 1530 1530 1530 1528 1528 1528 1529 1529 1529 1529 1529 1530
1486 1487 1490 1492 1494 1497 1499 1501 1504 1505 1507 1509 1510 1512 1513 1515 1516 1517 1517 1518 1519 1520 1521 1521 1522 1523 1524 1524 1525 1526 1526 1527 1527 1528 1527 1525 1524 1525 1525 1525 1525 1526 1526